LAOSAT 1

Last updated on Thu Oct 30 2025 00:02:50 GMT+0000 (Coordinated Universal Time)

1 41034U 15067A 25302.51044785 -.00000333 00000+0 00000+0 0 9995 2 41034 0.0390 59.7600 0002275 80.7204 209.9015 1.00269393 36547
UTC large
Height (km)
Speed (km/s)
/
Latitude / Longitude
Inclination (degrees)
Orbital Period (minutes)
Azimuth
Elevation
Range (km)
Doppler Factor

Next 0 passes for location: London (51.5072 / 0.1276)

Sorry there are no passes over London.